ボリソフ彗星

C/2017 E1 ( Borisov )

English version
Home page
Updated on October 8, 2017

---------------------------------------------------------------------

・ プロフィール

発見日 2017年3月1日
発見光度 17.0等
発見者 Gennadii Vladimirovich Borisov (Nauchnij, Crimea)

・ 写真集

・ 軌道要素

Epoch 2017 Mar. 28.0 TT = JDT 2457840.5
T 2017 Apr. 10.13851 TT                                 MPCW
q   0.9006618            (2000.0)            P               Q
z  -0.0028576      Peri.  152.47304     +0.43485739     +0.88754978
 +/-0.0000202      Node   142.73315     -0.86548949     +0.45860001
e   1.0025738      Incl.   14.55412     -0.24865035     -0.04406150
From 158 observations 2017 Mar. 1-June 25, mean residual 0".6.

・ 星図

・ 光度変化

        m1 = 10.5 + 5 logΔ + 15.0 log r

---------------------------------------------------------------------

軌道要素はM.P.E.C. 2017-T14に掲載されたものです。
星図はステラナビゲータ Ver.10 (アストロアーツ) で作成したものです。
光度グラフはComet for Windowsで作成したものです。

---------------------------------------------------------------------

Copyright(C) Seiichi Yoshida (comet@aerith.net). All rights reserved.